TimeEDT,TemperatureF,Dew PointF,Humidity,Sea Level PressureIn,VisibilityMPH,Wind Direction,Wind SpeedMPH,Gust SpeedMPH,PrecipitationIn,Events,Conditions,WindDirDegrees,DateUTC
12:15 AM,32.0,23.0,69,30.09,10.0,Calm,Calm,-,N/A,,Overcast,0,2013-03-20 04:15:00
12:35 AM,32.0,24.8,75,30.09,10.0,Calm,Calm,-,N/A,,Overcast,0,2013-03-20 04:35:00
12:55 AM,30.2,23.0,75,30.09,10.0,Calm,Calm,-,N/A,,Overcast,0,2013-03-20 04:55:00
1:15 AM,30.2,21.2,69,30.09,10.0,Calm,Calm,-,N/A,,Overcast,0,2013-03-20 05:15:00
1:35 AM,30.2,23.0,75,30.09,10.0,Calm,Calm,-,N/A,,Overcast,0,2013-03-20 05:35:00
1:55 AM,30.2,23.0,75,30.08,10.0,Calm,Calm,-,N/A,,Overcast,0,2013-03-20 05:55:00
2:15 AM,30.2,21.2,69,30.08,10.0,Calm,Calm,-,N/A,,Overcast,0,2013-03-20 06:15:00
2:35 AM,28.4,21.2,74,30.08,10.0,Calm,Calm,-,N/A,,Overcast,0,2013-03-20 06:35:00
2:55 AM,28.4,19.4,69,30.08,10.0,Calm,Calm,-,N/A,,Scattered Clouds,0,2013-03-20 06:55:00
3:15 AM,26.6,21.2,80,30.08,10.0,Calm,Calm,-,N/A,,Clear,0,2013-03-20 07:15:00
3:35 AM,26.6,21.2,80,30.07,10.0,Calm,Calm,-,N/A,,Clear,0,2013-03-20 07:35:00
3:55 AM,26.6,19.4,74,30.08,10.0,Calm,Calm,-,N/A,,Clear,0,2013-03-20 07:55:00
4:15 AM,26.6,19.4,74,30.07,10.0,Calm,Calm,-,N/A,,Clear,0,2013-03-20 08:15:00
4:35 AM,26.6,19.4,74,30.07,10.0,Calm,Calm,-,N/A,,Clear,0,2013-03-20 08:35:00
4:55 AM,26.6,19.4,74,30.06,10.0,Calm,Calm,-,N/A,,Clear,0,2013-03-20 08:55:00
5:15 AM,24.8,19.4,80,30.07,10.0,Calm,Calm,-,N/A,,Clear,0,2013-03-20 09:15:00
5:35 AM,24.8,17.6,74,30.07,10.0,Calm,Calm,-,N/A,,Clear,0,2013-03-20 09:35:00
5:55 AM,24.8,17.6,74,30.07,10.0,Calm,Calm,-,N/A,,Clear,0,2013-03-20 09:55:00
6:15 AM,24.8,19.4,80,30.06,10.0,Calm,Calm,-,N/A,,Clear,0,2013-03-20 10:15:00
6:35 AM,23.0,19.4,86,30.07,10.0,Calm,Calm,-,N/A,,Clear,0,2013-03-20 10:35:00
6:55 AM,24.8,17.6,74,30.08,10.0,Calm,Calm,-,N/A,,Clear,0,2013-03-20 10:55:00
7:15 AM,24.8,19.4,80,30.08,10.0,Calm,Calm,-,N/A,,Clear,0,2013-03-20 11:15:00
7:35 AM,23.0,17.6,80,30.08,10.0,Calm,Calm,-,N/A,,Clear,0,2013-03-20 11:35:00
7:55 AM,23.0,19.4,86,30.10,10.0,Calm,Calm,-,N/A,,Clear,0,2013-03-20 11:55:00
8:15 AM,24.8,19.4,80,30.10,10.0,Calm,Calm,-,N/A,,Clear,0,2013-03-20 12:15:00
8:35 AM,26.6,21.2,80,30.10,10.0,Calm,Calm,-,N/A,,Clear,0,2013-03-20 12:35:00
8:55 AM,28.4,21.2,74,30.10,10.0,Calm,Calm,-,N/A,,Clear,0,2013-03-20 12:55:00
9:15 AM,30.2,21.2,69,30.10,10.0,Calm,Calm,-,N/A,,Clear,0,2013-03-20 13:15:00
9:35 AM,32.0,21.2,64,30.10,10.0,Calm,Calm,-,N/A,,Clear,0,2013-03-20 13:35:00
9:55 AM,35.6,17.6,48,30.09,10.0,SSW,5.8,-,N/A,,Clear,210,2013-03-20 13:55:00
10:15 AM,39.2,15.8,39,30.09,10.0,Variable,3.5,-,N/A,,Clear,0,2013-03-20 14:15:00
10:35 AM,39.2,15.8,39,30.08,10.0,SW,6.9,-,N/A,,Clear,220,2013-03-20 14:35:00
10:55 AM,41.0,12.2,31,30.09,10.0,Variable,6.9,-,N/A,,Clear,0,2013-03-20 14:55:00
11:15 AM,42.8,8.6,25,30.08,10.0,WSW,6.9,-,N/A,,Clear,250,2013-03-20 15:15:00
11:35 AM,42.8,12.2,29,30.07,10.0,SSW,9.2,-,N/A,,Clear,200,2013-03-20 15:35:00
11:55 AM,42.8,10.4,27,30.06,10.0,SW,11.5,-,N/A,,Clear,220,2013-03-20 15:55:00
12:15 PM,44.6,12.2,27,30.05,10.0,SSW,10.4,-,N/A,,Clear,210,2013-03-20 16:15:00
12:35 PM,44.6,12.2,27,30.04,10.0,SW,9.2,-,N/A,,Clear,220,2013-03-20 16:35:00
12:55 PM,46.4,15.8,29,30.03,10.0,NW,8.1,-,N/A,,Clear,310,2013-03-20 16:55:00
1:15 PM,46.4,14.0,27,30.01,10.0,West,10.4,-,N/A,,Clear,270,2013-03-20 17:15:00
1:35 PM,46.4,14.0,27,30.00,10.0,West,11.5,-,N/A,,Clear,270,2013-03-20 17:35:00
1:55 PM,46.4,15.8,29,29.99,10.0,West,11.5,-,N/A,,Clear,260,2013-03-20 17:55:00
2:15 PM,46.4,12.2,25,29.97,10.0,WSW,11.5,-,N/A,,Clear,240,2013-03-20 18:15:00
2:35 PM,48.2,17.6,30,29.96,10.0,SW,11.5,-,N/A,,Clear,220,2013-03-20 18:35:00
2:55 PM,48.2,15.8,27,29.94,10.0,West,12.7,-,N/A,,Clear,260,2013-03-20 18:55:00
3:15 PM,48.2,15.8,27,29.93,10.0,SW,15.0,-,N/A,,Clear,230,2013-03-20 19:15:00
3:35 PM,46.4,15.8,29,29.92,10.0,WNW,10.4,-,N/A,,Partly Cloudy,290,2013-03-20 19:35:00
3:55 PM,48.2,15.8,27,29.90,10.0,WSW,12.7,-,N/A,,Partly Cloudy,240,2013-03-20 19:55:00
4:15 PM,48.2,15.8,27,29.90,10.0,West,11.5,23.0,N/A,,Partly Cloudy,260,2013-03-20 20:15:00
4:35 PM,48.2,14.0,25,29.89,10.0,WSW,18.4,-,N/A,,Partly Cloudy,240,2013-03-20 20:35:00
4:55 PM,48.2,12.2,24,29.88,10.0,West,11.5,-,N/A,,Partly Cloudy,260,2013-03-20 20:55:00
5:15 PM,46.4,12.2,25,29.87,10.0,WSW,12.7,-,N/A,,Clear,250,2013-03-20 21:15:00
5:35 PM,48.2,14.0,25,29.85,10.0,WSW,12.7,-,N/A,,Partly Cloudy,240,2013-03-20 21:35:00
5:55 PM,48.2,12.2,24,29.84,10.0,WSW,5.8,-,N/A,,Clear,250,2013-03-20 21:55:00
6:15 PM,46.4,12.2,25,29.84,10.0,WSW,17.3,-,N/A,,Clear,240,2013-03-20 22:15:00
6:35 PM,44.6,14.0,29,29.84,10.0,West,6.9,-,N/A,,Partly Cloudy,260,2013-03-20 22:35:00
6:55 PM,44.6,12.2,27,29.84,10.0,West,10.4,-,N/A,,Mostly Cloudy,270,2013-03-20 22:55:00
7:15 PM,44.6,14.0,29,29.84,10.0,West,8.1,-,N/A,,Scattered Clouds,260,2013-03-20 23:15:00
7:35 PM,44.6,14.0,29,29.84,10.0,West,12.7,-,N/A,,Mostly Cloudy,260,2013-03-20 23:35:00
7:55 PM,44.6,15.8,31,29.84,10.0,West,10.4,-,N/A,,Overcast,260,2013-03-20 23:55:00
8:15 PM,42.8,15.8,34,29.83,10.0,WSW,10.4,-,N/A,,Overcast,250,2013-03-21 00:15:00
8:35 PM,42.8,17.6,36,29.85,10.0,West,11.5,-,N/A,,Mostly Cloudy,260,2013-03-21 00:35:00
8:55 PM,41.0,21.2,45,29.85,10.0,WNW,6.9,-,N/A,,Overcast,300,2013-03-21 00:55:00
9:15 PM,39.2,21.2,49,29.85,10.0,WSW,8.1,-,N/A,,Overcast,250,2013-03-21 01:15:00
9:35 PM,39.2,21.2,49,29.85,10.0,WSW,6.9,-,N/A,,Overcast,240,2013-03-21 01:35:00
9:55 PM,39.2,21.2,49,29.85,10.0,NW,15.0,-,N/A,,Overcast,310,2013-03-21 01:55:00
10:15 PM,37.4,24.8,60,29.87,10.0,West,12.7,-,N/A,Rain,Light Rain,280,2013-03-21 02:15:00
10:35 PM,35.6,28.4,75,29.90,5.0,West,16.1,-,N/A,Snow,Light Snow,280,2013-03-21 02:35:00
10:55 PM,30.2,26.6,86,29.91,3.0,Variable,6.9,-,N/A,Snow,Light Snow,0,2013-03-21 02:55:00
11:15 PM,32.0,26.6,80,29.91,10.0,SW,6.9,-,N/A,,Overcast,220,2013-03-21 03:15:00
11:35 PM,32.0,23.0,69,29.91,10.0,WSW,9.2,-,N/A,,Overcast,250,2013-03-21 03:35:00
11:55 PM,32.0,17.6,55,29.91,10.0,West,10.4,-,N/A,,Mostly Cloudy,270,2013-03-21 03:55:00